• Join FlightAware (Why Join?)
  • Login
  • US Flag 
02:11AM EDT


 

Airport Tracker/Info


-or-


 

Live Flight TrackerFlight Track Log ✈ LXJ609 ✈ 10-May-2013 ✈ KCGF - KTEB

Flight Track Log - Related Links

Times and Time Zones

All times are in EDT time to prevent confusion due to time zone crossing. See the LXJ609 flight status page for this flight to view local times or setup timezone preferences in your user account.

Time Position Orientation Groundspeed Altitude Reporting Facility
EDT Latitude Longitude Course Direction KTS MPH feet Rate Location/Type
07:38AM 41.5581 -81.4989 270° West 140 161 1,600  Level Cleveland Center
07:39AM 41.5581 -81.5267 270° West 182 209 2,900 1,560 Climbing Cleveland Center
07:40AM 41.6289 -81.5250 North 264 304 4,000 2,220 Climbing Cleveland Center
07:41AM 41.6978 -81.4869 22° Northeast 277 319 7,700 3,900 Climbing Cleveland Center
07:42AM 41.7506 -81.4208 43° Northeast 254 292 11,800 3,480 Climbing Cleveland Center
07:43AM 41.7556 -81.2900 87° East 311 358 14,700 3,120 Climbing Cleveland Center
07:44AM 41.7669 -81.1261 85° East 362 417 18,100 4,200 Climbing Cleveland Center
07:45AM 41.7697 -80.9703 89° East 421 484 23,100 3,900 Climbing Cleveland Center
07:46AM 41.7783 -80.8339 85° East 421 484 26,000 2,640 Climbing Cleveland Center
07:47AM 41.7847 -80.6722 87° East 426 490 28,400 2,220 Climbing Cleveland Center
07:48AM 41.7911 -80.5081 87° East 438 504 30,500 2,160 Climbing Cleveland Center
07:49AM 41.7972 -80.3325 87° East 460 529 32,800 1,860 Climbing Cleveland Center
07:50AM 41.8028 -80.1542 88° East 465 535 34,300 1,080 Climbing Cleveland Center
07:51AM 41.8103 -79.9675 87° East 491 565 35,000 300 Climbing Cleveland Center
07:52AM 41.8175 -79.7583 87° East 502 578 35,000  Level Cleveland Center
07:53AM 41.8242 -79.5689 87° East 508 585 35,000  Level Cleveland Center
07:54AM 41.8308 -79.3794 87° East 508 585 35,000  Level Cleveland Center
07:55AM 41.8350 -79.2064 88° East 508 585 35,000  Level Cleveland Center
07:56AM 41.8408 -79.0194 88° East 508 585 35,000  Level Cleveland Center
07:57AM 41.8464 -78.8131 88° East 508 585 35,000  Level Cleveland Center
07:58AM 41.8494 -78.6236 89° East 508 585 35,000  Level Cleveland Center
07:59AM 41.8544 -78.4339 88° East 508 585 35,000  Level Cleveland Center
08:00AM 41.8569 -78.2469 89° East 508 585 35,000  Level Cleveland Center
08:01AM 41.8614 -78.0733 88° East 504 580 35,000  Level New York Center
08:02AM 41.8622 -77.8867 90° East 509 586 35,000  Level New York Center
08:03AM 41.8272 -77.7047 104° East 498 573 35,000  Level New York Center
08:04AM 41.7844 -77.5444 110° East 504 580 35,000 -300 Level New York Center
08:05AM 41.7336 -77.3725 112° Southeast 504 580 34,500 -1,020 Descending New York Center
08:06AM 41.6894 -77.1931 108° East 504 580 33,100 -1,440 Descending New York Center
08:07AM 41.6406 -77.0136 110° East 504 580 31,600 -1,440 Descending New York Center
08:08AM 41.5914 -76.8369 110° East 504 580 30,200 -1,560 Descending New York Center
08:09AM 41.5389 -76.6381 109° East 509 586 28,600 -1,620 Descending New York Center
08:10AM 41.4892 -76.4594 110° East 509 586 27,100 -1,380 Descending New York Center
08:11AM 41.4503 -76.3178 110° East 509 586 25,900 -1,380 Descending New York Center
08:12AM 41.3967 -76.1222 110° East 509 586 24,400 -1,500 Descending New York Center
08:13AM 41.3500 -75.9556 110° East 496 571 22,900 -1,500 Descending New York Center
08:14AM 41.3006 -75.7944 112° Southeast 483 556 21,400 -2,340 Descending New York Center
08:15AM 41.2514 -75.6250 111° Southeast 461 531 18,300 -2,040 Descending New York Center
08:16AM 41.2031 -75.4811 114° Southeast 449 517 17,400 -2,580 Descending New York Center
08:17AM 41.1622 -75.3569 114° Southeast 413 475 13,200 -3,240 Descending New York Center
08:18AM 41.1172 -75.2244 114° Southeast 384 442 10,900 -2,340 Descending New York Center
08:19AM 41.0814 -75.1203 115° Southeast 329 379 8,600 -2,220 Descending New York Center
08:20AM 41.0497 -75.0219 113° Southeast 298 343 6,600 -1,320 Descending New York Center
08:21AM 41.0200 -74.9211 111° Southeast 284 327 6,000 -300 Descending New York Center
08:22AM 41.0069 -74.8131 99° East 290 334 6,000 -540 Level New York Center
08:23AM 41.0000 -74.7164 95° East 295 339 5,000 -1,020 Descending New York Center
08:24AM 40.9869 -74.6028 99° East 290 334 4,000 -600 Descending New York Center
08:25AM 40.9775 -74.5089 98° East 290 334 3,800 -540 Descending New York Center
08:26AM 40.9664 -74.3983 98° East 278 320 3,000 -420 Descending New York Center
08:27AM 40.9567 -74.3072 98° East 273 314 3,000 -480 Level New York Center
08:28AM 40.9431 -74.1967 99° East 278 320 2,100 -720 Descending New York Center
08:29AM 40.9331 -74.1111 99° East 253 291 1,600 -360 Descending New York Center
08:30AM 40.9200 -74.0608 109° East 192 221 1,400 -600 Descending New York Center
08:31AM 40.8764 -74.0589 178° South 130 150 500 -600 Descending New York Center
08:32AM 40.8456 -74.0436 159° South 124 143 200 8,880 Descending New York Center
08:33AM 40.8147 -74.0283 159° South 124 143 18,000 18,360 Climbing New York Center